{"data":{"norad_id":53802,"intl_designator":"2022-111AF","name":"STARLINK-4726","alt_names":[],"object_type":"PAYLOAD","status":"ACTIVE","operator":null,"country":"US","launch_date":"2022-09-11","launch_site_code":"AFETR","launch_vehicle":null,"mission":null,"orbit_class":"UNKNOWN","rcs_meters":null,"size_class":null,"mass_kg":null,"dimensions":null,"purposes":["comms"],"wikipedia_slug":null,"has_3d_model":false,"image_url":null,"decayed_at":null,"tle_current":{"epoch":"2026-09-20T20:52:29.321184Z","epoch_age_seconds":51814,"freshness":"FRESH","line1":"1 53802U 22111AF  26263.86978381  .00000671  00000+0  31006-4 0  9991","line2":"2 53802  53.1591  91.7036 0001140  83.8456 276.2676 15.34387131223504","mean_motion":15.34387131,"eccentricity":0.000114,"inclination_deg":53.1591,"raan_deg":91.7036,"arg_perigee_deg":83.8456,"mean_anomaly_deg":276.2676,"bstar":3.1006e-5,"rev_number":22350,"period_min":93.8485451883,"perigee_km":461.96162970661,"apogee_km":463.5213500023,"semimajor_km":6840.8784898545,"source":"CELESTRAK","updated_at":"2026-09-21T09:00:32.996357Z"}}}